Location: Chassagnes
(44.4047°N, 4.1657°E)
Time: 12:57:06
(UTC+00:00)

CZ-2C R/B - Pass Details

Date: 27 October 2020
Orbit: 703 x 909 km, 98.1° (Epoch: 23 November)

Event Time Altitude Azimuth Distance (km) Brightness Sun altitude
Rises 18:24:13 0° 165° (SSE) 3,523 6.3 -19.3°
Reaches altitude 10° 18:26:39 10° 166° (SSE) 2,582 5.6 -19.7°
Maximum altitude 18:32:27 88° 255° (WSW) 900 3.3 -20.8°
Drops below altitude 10° 18:38:09 10° 346° (NNW) 2,525 5.9 -21.8°
Sets 18:40:30 0° 347° (NNW) 3,440 6.6 -22.2°
